RYR23BF EGPH-EIDW

Flight info

Callsign RYR23BF
Flight time N/A
Altitude 26000
Route GOSAM P600 TRN DCT BLACA P620 NIMAT NIMAT4L
Aircraft B738/M-SDE3FGILRWY/SB1

Departure

Time N/A
Airport Edinburgh Airport (EGPH)

Arrival

Time 2026-05-05 18:25
Airport Dublin Airport (EIDW)
Time Latitude Longitude Altitude Speed Heading
2026-05-05 17:51 55.12334 -4.95045 22044 ft 339 kts 210°
2026-05-05 17:51 55.10255 -4.96858 22047 ft 339 kts 210°
2026-05-05 17:51 55.08146 -4.98697 22048 ft 339 kts 210°
2026-05-05 17:52 55.06168 -5.00419 22037 ft 339 kts 210°
2026-05-05 17:52 55.04052 -5.02260 22050 ft 339 kts 210°
2026-05-05 17:52 55.01942 -5.04093 22040 ft 339 kts 210°
2026-05-05 17:52 54.99830 -5.05927 22050 ft 340 kts 210°
2026-05-05 17:53 54.97719 -5.07758 22039 ft 340 kts 210°
2026-05-05 17:53 54.95604 -5.09590 22053 ft 339 kts 210°
2026-05-05 17:53 54.93493 -5.11416 22039 ft 339 kts 210°
2026-05-05 17:53 54.91379 -5.13242 22055 ft 339 kts 210°
2026-05-05 17:54 54.89261 -5.15059 22040 ft 340 kts 208°
2026-05-05 17:54 54.87034 -5.16469 22041 ft 343 kts 197°
2026-05-05 17:54 54.86278 -5.16775 22055 ft 343 kts 195°
2026-05-05 17:54 54.82393 -5.18183 22049 ft 344 kts 194°
2026-05-05 17:55 54.80049 -5.19008 22050 ft 344 kts 195°
2026-05-05 17:55 54.77708 -5.19842 22048 ft 344 kts 195°
2026-05-05 17:55 54.75363 -5.20686 22057 ft 344 kts 195°
2026-05-05 17:55 54.73018 -5.21537 22058 ft 344 kts 195°
2026-05-05 17:56 54.70680 -5.22390 22055 ft 344 kts 195°
2026-05-05 17:56 54.68339 -5.23247 22059 ft 344 kts 195°
2026-05-05 17:56 54.65993 -5.24105 22058 ft 344 kts 195°
2026-05-05 17:56 54.63652 -5.24961 22049 ft 344 kts 195°
2026-05-05 17:57 54.61308 -5.25818 22050 ft 344 kts 195°
2026-05-05 17:57 54.58973 -5.26670 22054 ft 344 kts 195°
2026-05-05 17:57 54.56626 -5.27526 22057 ft 344 kts 195°
2026-05-05 17:57 54.54286 -5.28378 22048 ft 340 kts 195°
2026-05-05 17:58 54.51991 -5.29210 22049 ft 335 kts 195°
2026-05-05 17:58 54.49745 -5.30041 22030 ft 324 kts 198°
2026-05-05 17:58 54.47714 -5.31276 22045 ft 306 kts 209°
2026-05-05 17:58 54.45842 -5.32848 22039 ft 293 kts 210°
2026-05-05 17:59 54.44060 -5.34374 22044 ft 280 kts 210°
2026-05-05 17:59 54.42352 -5.35838 22030 ft 268 kts 210°
2026-05-05 17:59 54.40708 -5.37240 22037 ft 260 kts 210°
2026-05-05 17:59 54.39076 -5.38631 22064 ft 266 kts 210°
2026-05-05 18:00 54.37386 -5.40069 22058 ft 275 kts 210°
2026-05-05 18:00 54.35658 -5.41531 22076 ft 278 kts 210°
2026-05-05 18:00 54.33922 -5.42993 22055 ft 276 kts 210°
2026-05-05 18:00 54.32202 -5.44437 22047 ft 275 kts 210°
2026-05-05 18:01 54.30495 -5.45868 22055 ft 273 kts 210°
2026-05-05 18:01 54.28791 -5.47295 22053 ft 271 kts 210°
2026-05-05 18:01 54.27123 -5.48691 22054 ft 270 kts 210°
2026-05-05 18:01 54.25440 -5.50098 22057 ft 269 kts 210°
2026-05-05 18:02 54.23760 -5.51502 22060 ft 269 kts 210°
2026-05-05 18:02 54.22078 -5.52906 22061 ft 269 kts 210°
2026-05-05 18:02 54.20392 -5.54313 22059 ft 270 kts 210°
2026-05-05 18:02 54.18704 -5.55720 22068 ft 271 kts 210°
2026-05-05 18:03 54.17008 -5.57131 22065 ft 272 kts 210°
2026-05-05 18:03 54.15300 -5.58550 22063 ft 273 kts 210°
2026-05-05 18:03 54.13590 -5.59973 22070 ft 275 kts 210°
2026-05-05 18:03 54.11868 -5.61410 22066 ft 276 kts 210°
2026-05-05 18:04 54.10142 -5.62851 22051 ft 276 kts 210°
2026-05-05 18:04 54.08416 -5.64291 22062 ft 277 kts 210°
2026-05-05 18:04 54.06709 -5.65714 22049 ft 277 kts 210°
2026-05-05 18:04 54.04977 -5.67157 22052 ft 277 kts 210°
2026-05-05 18:05 54.03247 -5.68597 22055 ft 277 kts 210°
2026-05-05 18:05 54.01520 -5.70033 22052 ft 276 kts 210°
2026-05-05 18:05 53.99810 -5.71452 22054 ft 276 kts 210°
2026-05-05 18:05 53.98086 -5.72881 22055 ft 275 kts 210°
2026-05-05 18:06 53.96333 -5.74169 22040 ft 278 kts 196°
2026-05-05 18:06 53.95063 -5.74423 22080 ft 278 kts 186°
2026-05-05 18:06 53.92429 -5.74585 21423 ft 292 kts 186°
2026-05-05 18:06 53.90340 -5.74709 20516 ft 311 kts 185°
2026-05-05 18:07 53.88104 -5.74849 19679 ft 329 kts 185°
2026-05-05 18:07 53.85797 -5.74995 19238 ft 331 kts 185°
2026-05-05 18:07 53.83505 -5.75144 18960 ft 327 kts 185°
2026-05-05 18:07 53.81278 -5.75292 18665 ft 324 kts 185°
2026-05-05 18:08 53.79030 -5.75448 18314 ft 323 kts 185°
2026-05-05 18:08 53.76783 -5.75605 17914 ft 322 kts 185°
2026-05-05 18:08 53.74532 -5.75764 17626 ft 318 kts 185°
2026-05-05 18:08 53.72416 -5.75911 17571 ft 300 kts 185°
2026-05-05 18:09 53.70380 -5.76053 17375 ft 288 kts 185°
2026-05-05 18:09 53.68392 -5.76195 16955 ft 284 kts 185°
2026-05-05 18:09 53.66418 -5.76336 16468 ft 284 kts 185°
2026-05-05 18:09 53.64443 -5.76406 16004 ft 284 kts 177°
2026-05-05 18:10 53.62557 -5.75290 15508 ft 289 kts 146°
2026-05-05 18:10 53.61153 -5.72941 15117 ft 288 kts 128°
2026-05-05 18:10 53.59965 -5.70195 14707 ft 285 kts 126°
2026-05-05 18:10 53.58807 -5.67496 14304 ft 283 kts 126°
2026-05-05 18:11 53.57646 -5.64826 13896 ft 282 kts 127°
2026-05-05 18:11 53.56231 -5.62580 13409 ft 279 kts 149°
2026-05-05 18:11 53.54630 -5.61014 13024 ft 276 kts 151°
2026-05-05 18:11 53.52990 -5.59391 12585 ft 274 kts 150°
2026-05-05 18:12 53.51378 -5.57765 12169 ft 273 kts 149°
2026-05-05 18:12 53.49757 -5.56120 11754 ft 271 kts 150°
2026-05-05 18:12 53.48030 -5.54977 11321 ft 268 kts 172°
2026-05-05 18:12 53.46197 -5.54537 10933 ft 265 kts 173°
2026-05-05 18:13 53.44398 -5.54085 10528 ft 264 kts 172°
2026-05-05 18:13 53.42568 -5.53599 10130 ft 263 kts 172°
2026-05-05 18:13 53.40764 -5.53110 9717 ft 261 kts 172°
2026-05-05 18:13 53.38970 -5.52941 9264 ft 258 kts 191°
2026-05-05 18:14 53.37236 -5.53623 8864 ft 255 kts 196°
2026-05-05 18:14 53.35516 -5.54322 8439 ft 254 kts 195°
2026-05-05 18:14 53.33777 -5.54995 8097 ft 252 kts 195°
2026-05-05 18:14 53.32052 -5.55650 8070 ft 256 kts 194°
2026-05-05 18:15 53.30365 -5.56351 8051 ft 252 kts 203°
2026-05-05 18:15 53.28875 -5.57818 8067 ft 248 kts 218°
2026-05-05 18:15 53.27447 -5.59484 8056 ft 250 kts 217°
2026-05-05 18:15 53.26021 -5.61138 8049 ft 249 kts 221°
2026-05-05 18:16 53.25004 -5.63385 8055 ft 241 kts 253°
2026-05-05 18:16 53.24833 -5.66090 8049 ft 232 kts 281°
2026-05-05 18:16 53.25371 -5.68532 8000 ft 217 kts 303°
2026-05-05 18:16 53.26295 -5.70395 7887 ft 202 kts 314°
2026-05-05 18:17 53.27265 -5.72050 7565 ft 199 kts 315°
2026-05-05 18:17 53.27907 -5.73133 7328 ft 198 kts 315°
2026-05-05 18:17 53.28871 -5.74767 6989 ft 196 kts 315°
2026-05-05 18:17 53.29820 -5.76391 6656 ft 194 kts 315°
2026-05-05 18:18 53.31061 -5.78525 6197 ft 192 kts 315°
2026-05-05 18:18 53.31688 -5.79608 5954 ft 191 kts 315°
2026-05-05 18:18 53.32811 -5.81548 5572 ft 187 kts 315°
2026-05-05 18:18 53.33416 -5.82594 5388 ft 184 kts 315°
2026-05-05 18:19 53.34296 -5.84118 5082 ft 182 kts 315°
2026-05-05 18:19 53.35173 -5.85637 4772 ft 180 kts 315°
2026-05-05 18:19 53.36043 -5.87146 4428 ft 180 kts 316°
2026-05-05 18:19 53.36911 -5.88651 4106 ft 180 kts 316°
2026-05-05 18:20 53.37779 -5.90160 3788 ft 179 kts 316°
2026-05-05 18:20 53.38634 -5.91647 3428 ft 178 kts 316°
2026-05-05 18:20 53.39501 -5.93153 3051 ft 177 kts 317°
2026-05-05 18:20 53.40241 -5.94832 3004 ft 187 kts 292°
2026-05-05 18:21 53.40415 -5.96979 3008 ft 188 kts 279°
2026-05-05 18:21 53.40548 -5.99156 3003 ft 187 kts 280°
2026-05-05 18:21 53.40672 -6.01204 2980 ft 189 kts 280°
2026-05-05 18:21 53.40803 -6.03405 2783 ft 188 kts 279°
2026-05-05 18:22 53.40943 -6.05495 2579 ft 182 kts 281°
2026-05-05 18:22 53.41074 -6.07601 2285 ft 179 kts 278°
2026-05-05 18:22 53.41180 -6.09633 2037 ft 168 kts 278°
2026-05-05 18:22 53.41280 -6.11515 1834 ft 158 kts 278°
2026-05-05 18:23 53.41377 -6.13307 1608 ft 154 kts 278°
2026-05-05 18:23 53.41469 -6.15026 1355 ft 144 kts 278°
2026-05-05 18:23 53.41561 -6.16694 1224 ft 145 kts 278°
2026-05-05 18:23 53.41650 -6.18395 1070 ft 146 kts 278°
2026-05-05 18:24 53.41753 -6.20077 862 ft 145 kts 278°
2026-05-05 18:24 53.41858 -6.21767 671 ft 148 kts 277°
2026-05-05 18:24 53.41946 -6.23473 428 ft 144 kts 278°
2026-05-05 18:24 53.42033 -6.25143 266 ft 143 kts 277°
2026-05-05 18:25 53.42118 -6.26703 210 ft 123 kts 275°
2026-05-05 18:25 53.42160 -6.27494 209 ft 60 kts 275°
2026-05-05 18:25 53.42243 -6.27969 215 ft 23 kts 300°
2026-05-05 18:25 53.42347 -6.28121 219 ft 16 kts 24°
2026-05-05 18:26 53.42358 -6.27964 210 ft 14 kts 96°
2026-05-05 18:26 53.42348 -6.27808 215 ft 13 kts 96°
2026-05-05 18:26 53.42340 -6.27656 210 ft 13 kts 94°
2026-05-05 18:26 53.42326 -6.27378 210 ft 29 kts 94°
2026-05-05 18:27 53.42308 -6.27056 210 ft 27 kts 95°
2026-05-05 18:27 53.42292 -6.26755 210 ft 25 kts 96°
2026-05-05 18:27 53.42277 -6.26476 219 ft 23 kts 96°
2026-05-05 18:27 53.42272 -6.26212 210 ft 22 kts 82°
2026-05-05 18:28 53.42349 -6.25824 214 ft 20 kts 46°
2026-05-05 18:28 53.42461 -6.25633 210 ft 25 kts 45°
2026-05-05 18:28 53.42578 -6.25433 209 ft 23 kts 46°
2026-05-05 18:29 53.42689 -6.25244 213 ft 22 kts 43°
2026-05-05 18:29 53.42834 -6.25273 210 ft 24 kts 335°
2026-05-05 18:29 53.42995 -6.25391 210 ft 25 kts 335°
2026-05-05 18:29 53.43146 -6.25492 215 ft 20 kts 356°
2026-05-05 18:30 53.43225 -6.25322 212 ft 20 kts 72°
2026-05-05 18:30 53.43221 -6.25097 210 ft 19 kts 95°
2026-05-05 18:30 53.43183 -6.25011 222 ft 7 kts 175°
2026-05-05 18:30 53.43129 -6.25022 210 ft 8 kts 186°
2026-05-05 18:31 53.43118 -6.25024 213 ft 0 kts 185°